Tracking 29528 objects as of 12-Sep-2024
HD Live streaming from Space Station
objects crossing your sky now

FENGYUN 1C DEB

Track FENGYUN 1C DEB now!
10-day predictions


NORAD ID: 30341
Int'l Code: 1999-025ABC
Perigee: 777.6 km
Apogee: 858.1 km
Inclination: 99.2 °
Period: 101.1 minutes
Semi major axis: 7188 km
RCS: 0.0444 m2 (small)
Launch date: May 10, 1999
Source: People's Republic of China (PRC)
Launch site: Taiyaun Space Center, China (TSC)

Note: This is SATELLITE DEBRIS
Your satellite tracking list
Your tracking list is empty




NASA's NSSDC Master Catalog

Two Line Element Set (TLE):
1 30341U 99025ABC 24256.57642674  .00051633  00000-0  21846-1 0  9996
2 30341  99.2294 111.6589 0055981 300.6147 113.5445 14.24330200905970
Source of the keplerian elements: AFSPC